Weather in Strelsk

Ukraine / Rovno District     51°26′01″N   26°38′52″E
temp.,
°C
wind,
m/s
gust,
m/s
humid.,
%
clouds,
%
prec.,
mm/h
press.,
hPa
HPBL,
m
27 november, sat
sat2723:00+5se61481100 0.0 997769
02:00+6se61487100 2.5 993878
05:00+6s51093100 0.9 991576
08:00+6ssw41190100 1.2 991556
11:00+7sw8137682 0.1 9931008
14:00+4sw71177100 0.1 996870
17:00+4wsw61172100 0.0 998961
20:00+2wsw37809 0.0 1000265
28 november, sun
sun2823:00+1sw36885 0.0 1002134
02:000ssw229182 0.0 100232
05:00+2sse2586100 0.0 1002162
08:00+3se3583100 0.0 1002127
11:00+4ese2496100 3.1 1002112
14:00+4e3591100 5.3 1000181
17:00+4e2496100 2.6 999108
20:00+5sse119467 2.6 99922
29 november, mon
mon2923:00+5se239462 0.0 99753
02:00+4se3592100 0.0 99575
05:00+4ese3793100 0.0 993141
08:00+5se3796100 0.0 991173
11:00+7s2792100 0.1 990381
14:00+4w61095100 0.2 990677
17:00+2w61289100 1.0 991763
20:00+2w81479100 1.3 9911145
30 november, tue
tue3023:00+1wsw81581100 0.0 9921403
02:00+1wsw81691100 0.1 9921279
05:00+2wsw10177599 0.3 9931364
08:00+1wsw101893100 0.6 9941337
11:00+1wnw81696100 1.8 9971219
14:00+1w101575100 2.1 9991250
17:000w81478100 0.0 1001998
20:00−1w71377100 0.0 1002919
1 december, wed
wed123:00−1w6118094 0.0 1003895
02:00−2wsw488229 0.1 1002580
05:00−2ssw41085100 0.0 1002428
08:00−1ssw51194100 0.2 1001600
11:00+1sw5109297 0.3 1001598
14:00+2wsw51098100 0.4 1001749
17:00+2sw51197100 0.1 1001594
20:00+3sw61597100 0.4 999676